Regional Weather Roundup
Issued by NWS Charleston, WV

Home | Current Version | Previous Version | Graphics & Text | Print | Product List | Glossary On
Versions: 1 2 3 4 5 6 7 8 9 10 11 12 13 14 15 16 17 18 19 20 21 22 23 24 25 26 27 28 29 30 31 32 33 34 35 36 37 38 39 40 41 42 43 44 45 46 47 48 49 50
422
ASUS41 KRLX 211510
RWRRLX
West Virginia Regional Weather Roundup
National Weather Service Charleston WV
1100 AM EDT FRI JUL 21 2017

Note: "fair" indicates few or no clouds below 12,000 feet with no
significant weather and/or obstructions to visibility.

WVZ003-211600-
Northern Panhandle of West Virginia

CITY           SKY/WX    TMP DP  RH WIND       PRES   REMARKS
WHEELING       CLOUDY    79  73  82 CALM      30.00F
$$

WVZ009-211600-
Northwest West Virginia

CITY           SKY/WX    TMP DP  RH WIND       PRES   REMARKS
PARKERSBURG    MOSUNNY   83  75  77 SW8       30.02S
$$

WVZ006-211600-
Western West Virginia

CITY           SKY/WX    TMP DP  RH WIND       PRES   REMARKS
HUNTINGTON     CLOUDY    82  73  74 W15G24    30.08R
$$

WVZ015-211600-
West Central West Virginia

CITY           SKY/WX    TMP DP  RH WIND       PRES   REMARKS
CHARLESTON     PTSUNNY   83  72  69 SW7       30.05R
$$

WVZ022-031-211600-
North Central West Virginia

CITY           SKY/WX    TMP DP  RH WIND       PRES   REMARKS
CLARKSBURG     HVY RAIN  79  73  82 CALM      30.02F VSB 3/4
MORGANTOWN     MOSUNNY   79  72  79 CALM      30.03F
$$

WVZ025-035-042-045-211600-
Southern West Virginia

CITY           SKY/WX    TMP DP  RH WIND       PRES   REMARKS
BECKLEY        MOSUNNY   83  70  64 W8        30.14F
LOGAN          PTSUNNY   82  73  74 CALM      30.11R
BLUEFIELD      PTSUNNY   77  68  73 NW7       30.18S
LEWISBURG      CLOUDY    77  70  79 SW5       30.12F
$$

WVZ047-211600-
Northern Mountains of West Virginia

CITY           SKY/WX    TMP DP  RH WIND       PRES   REMARKS
ELKINS         CLOUDY    79  70  74 S6        30.08F
$$

WVZ052-211600-
Eastern Panhandle of West Virginia

CITY           SKY/WX    TMP DP  RH WIND       PRES   REMARKS
MARTINSBURG    PTSUNNY   88  70  55 W7        29.97F
PETERSBURG     MOSUNNY   89  73  58 CALM      30.00F HX  96
$$




USA.gov is the U.S. government's official web portal to all federal, state and local government web resources and services.